Theta_e
288 289 290 288 288 288 286 287 283 286 287 291 294 295 298 299 300 299 300 303 316 320 324 328 332 335 336 337 338 338 337 335 334 335 335 334 332 329 328 326 325 326 329 329
287 289 289 287 289 289 288 288 288 289 288 295 297 298 298 298 299 299 300 309 315 323 323 322 331 333 335 335 334 336 334 333 334 334 333 330 328 327 325 325 326 327 329 327
281 288 288 283 288 289 290 292 290 286 291 294 295 296 296 297 299 299 302 309 316 317 321 320 324 331 333 334 333 332 332 332 333 331 330 327 325 325 327 324 328 329 329 325
280 284 275 287 296 295 291 293 296 297 297 297 297 297 299 300 299 299 302 310 316 318 320 319 323 330 330 331 331 331 330 328 329 327 326 325 326 328 328 328 328 328 325 322
280 277 285 289 292 291 289 289 295 294 297 299 301 302 297 306 308 301 302 308 318 319 320 327 327 326 325 324 323 324 325 326 327 327 326 324 327 327 327 324 323 324 324 321
282 277 277 287 294 297 294 283 294 294 294 295 298 292 296 307 308 312 318 319 319 315 318 327 325 324 322 321 323 323 324 326 326 326 326 327 324 325 323 324 324 326 325 321
282 280 283 293 294 296 283 284 293 294 293 294 293 297 300 306 309 311 314 321 323 324 323 326 326 323 321 323 322 324 325 326 326 324 325 326 327 324 323 323 324 325 323 320
285 281 279 295 293 286 291 294 294 294 295 294 297 299 301 305 308 310 315 319 324 324 323 326 323 325 324 322 323 324 326 325 324 325 328 327 325 327 323 323 323 323 321 320
285 285 293 294 293 297 297 294 294 295 297 299 299 298 301 304 308 310 316 320 323 324 324 325 325 327 324 324 323 325 325 324 324 325 326 326 323 323 323 323 323 322 321 319
287 291 288 294 297 297 296 295 297 298 301 300 297 300 304 306 308 312 316 320 325 323 325 324 326 327 327 324 325 325 323 321 322 325 326 323 325 324 322 321 322 323 321 318
290 293 293 296 297 297 297 298 299 302 304 303 304 305 307 309 314 319 322 325 327 326 323 324 327 326 326 326 326 324 322 323 325 326 320 316 311 312 320 316 317 325 324 320
287 294 292 293 297 298 297 299 300 301 301 304 309 309 315 317 318 320 321 325 324 325 325 325 325 324 326 328 327 325 322 322 324 324 322 319 317 312 296 295 295 304 310 317
294 298 296 297 298 300 299 299 300 300 301 305 307 309 311 311 317 315 320 321 323 323 323 324 324 325 326 327 327 323 321 323 324 324 323 320 318 317 315 307 297 294 295 301
299 298 295 297 296 298 299 299 300 301 301 303 305 307 308 308 311 315 319 321 321 320 321 324 323 323 325 327 325 324 323 313 324 325 326 322 320 318 319 318 315 311 298 298
297 297 298 300 298 297 299 298 297 297 299 300 303 303 305 305 306 309 312 316 318 321 323 323 321 321 324 324 327 323 324 325 323 325 324 322 323 321 322 317 314 311 311 303
297 296 297 298 296 297 297 297 296 296 297 298 298 300 301 301 301 306 307 309 310 311 313 314 315 321 324 325 324 322 322 311 315 322 325 323 323 322 319 317 316 317 316 313
293 292 293 295 296 296 296 297 296 296 296 297 297 298 299 298 297 298 300 304 306 305 308 308 308 319 319 318 323 320 322 322 314 323 321 325 324 322 321 320 320 318 316 313
296 296 295 296 297 297 296 297 296 296 296 296 297 296 295 295 294 295 297 300 303 304 301 304 304 314 316 314 320 322 323 322 321 323 325 323 322 325 323 322 322 319 317 307
296 297 297 297 298 298 297 297 297 297 296 295 294 292 294 295 295 295 295 297 296 298 297 303 303 310 312 305 316 322 323 323 323 323 322 312 316 320 322 323 322 320 318 314
296 297 298 298 298 299 298 298 298 297 298 295 293 292 291 291 293 294 295 293 293 294 300 300 304 306 308 306 304 311 313 318 317 315 314 316 315 317 316 310 322 321 320 318
297 297 298 298 297 298 299 298 298 296 296 296 294 292 292 292 292 292 293 293 293 296 297 296 297 302 305 303 305 307 305 303 305 308 308 309 307 306 306 306 306 306 306 305
297 297 297 298 297 296 298 298 298 297 296 293 293 292 292 291 293 292 292 291 294 292 296 296 296 289 297 297 302 303 303 302 300 300 300 300 300 300 300 299 299 300 298 298
299 299 298 298 297 296 297 297 299 298 296 294 293 292 292 292 292 290 289 293 294 292 295 293 289 288 290 299 299 299 299 299 299 299 298 297 297 297 296 296 296 294 295 294
300 299 299 300 299 297 295 297 297 299 298 297 296 296 295 293 293 294 294 292 290 292 292 292 291 288 293 298 297 297 296 296 296 296 296 294 295 294 293 293 293 294 294 294
303 302 300 299 298 297 297 297 297 298 297 296 296 296 297 297 295 295 295 295 290 294 295 289 289 290 296 296 296 296 296 296 296 296 295 294 294 293 293 293 292 292 291 291
304 303 303 301 299 299 299 297 295 296 296 296 295 295 296 296 296 296 296 294 295 293 296 297 297 297 297 296 296 296 296 295 295 295 295 295 295 294 293 293 292 291 291 290
305 300 302 301 300 299 298 297 296 295 295 295 294 296 296 295 294 295 294 296 296 296 295 296 297 296 297 297 297 296 296 296 294 295 294 293 293 292 292 292 292 292 291 290
Wind_Speed
20 20 20 22 19 19 19 16 16 21 17 18 8 5 1 10 24 28 25 22 21 13 13 7 11 16 15 14 16 14 13 13 11 11 10 10 10 8 7 8 7 7 8 8
16 21 20 22 19 21 19 19 18 22 21 24 8 5 9 16 28 24 21 13 8 6 13 15 9 16 16 16 16 16 14 14 13 13 11 9 8 7 7 6 6 8 9 8
6 11 13 7 8 10 9 14 14 14 15 5 6 11 18 21 22 20 15 5 12 12 6 17 17 6 15 17 16 15 14 14 12 12 11 9 7 8 7 7 9 8 9 9
8 9 2 2 15 7 10 7 13 11 15 15 9 14 20 20 15 9 11 4 6 7 3 10 10 6 15 17 15 14 13 12 12 10 9 8 7 9 7 7 9 8 8 7
4 3 12 9 17 14 9 8 12 12 16 17 21 14 9 13 16 11 8 4 14 10 10 13 15 14 16 16 14 12 14 12 11 14 10 7 9 8 8 7 6 6 7 8
3 5 4 6 14 15 14 8 12 14 15 17 18 9 6 23 14 10 6 11 7 7 16 9 12 14 14 9 16 14 13 13 11 11 11 9 9 8 4 6 6 6 8 7
6 7 7 6 12 13 4 5 19 15 17 18 9 6 15 22 16 8 6 6 7 6 8 8 9 10 12 15 14 14 13 12 11 8 9 9 9 6 6 6 7 8 8 5
3 3 6 8 9 3 9 20 18 18 19 19 18 18 20 18 19 16 8 6 12 5 10 6 8 13 16 14 9 11 14 12 11 10 9 9 10 5 7 7 9 8 7 6
5 6 8 14 9 9 9 12 17 18 21 20 17 16 19 16 18 17 14 3 7 2 14 6 12 13 14 10 14 15 13 10 8 12 9 7 7 7 7 8 7 6 5 6
2 5 7 13 4 6 11 13 17 19 19 5 10 13 14 15 14 17 15 4 6 5 15 10 14 11 14 14 15 15 13 9 9 11 8 5 4 5 5 5 6 6 5 5
6 5 15 3 9 8 14 15 15 12 12 10 9 13 14 16 15 11 10 3 8 7 8 15 12 12 14 15 13 12 9 8 8 8 9 8 7 4 3 2 2 9 6 7
3 4 5 11 8 12 15 12 9 10 12 12 9 12 12 6 10 9 1 13 7 5 5 11 11 12 17 14 14 12 8 7 6 7 7 7 8 7 13 7 6 6 13 9
2 4 8 8 8 9 10 10 9 9 10 10 12 10 10 10 8 5 11 7 7 7 9 13 14 14 13 13 12 10 9 8 7 9 8 8 7 7 8 7 20 19 10 14
5 3 5 9 4 8 8 10 8 6 8 10 12 11 11 11 14 9 9 8 5 11 11 6 12 16 12 11 10 8 7 11 8 7 9 8 8 7 6 7 7 6 13 10
5 4 1 6 9 10 8 9 9 10 10 11 11 10 12 13 16 10 12 11 7 5 10 1 8 6 6 9 10 8 9 8 5 5 7 9 8 8 7 8 8 7 6 8
8 9 6 8 10 10 8 10 10 10 10 9 11 11 11 12 14 11 14 12 9 10 17 11 11 9 9 8 7 6 7 10 7 5 9 8 6 8 9 9 9 9 7 7
6 9 11 6 8 11 10 10 10 9 10 11 11 11 10 16 12 15 13 7 6 14 8 11 9 7 11 5 5 4 8 7 11 6 5 8 8 9 8 9 9 8 7 7
5 5 7 8 9 8 10 11 11 10 9 10 10 7 14 16 12 11 10 10 9 13 15 12 9 8 9 5 4 4 4 5 5 5 3 5 5 9 8 8 9 8 6 5
4 7 8 10 7 8 9 10 8 9 11 11 10 13 10 11 10 10 10 11 13 12 14 13 12 15 14 14 11 10 11 9 9 9 6 9 5 5 6 9 10 9 8 6
5 7 8 11 10 8 8 9 10 11 10 10 11 13 12 14 14 10 8 12 9 7 9 10 12 12 11 14 14 10 13 13 13 12 8 9 11 13 11 13 13 12 10 9
5 7 8 10 10 9 7 9 9 11 10 11 11 12 11 10 12 10 7 9 12 10 10 14 11 9 9 9 11 11 13 12 12 12 7 9 13 14 13 13 13 12 11 11
6 6 10 7 8 7 8 8 9 10 11 12 12 11 10 10 5 5 9 8 6 11 9 10 9 11 9 15 11 12 14 12 11 9 9 11 12 13 13 12 12 12 11 11
6 5 8 6 7 7 6 8 10 9 11 11 10 10 8 7 8 7 9 10 7 9 9 9 11 13 12 12 12 14 14 12 11 11 11 12 12 12 13 13 12 11 11 11
6 5 7 7 6 6 6 7 8 10 9 9 9 7 6 6 7 6 6 5 8 12 11 10 12 12 12 10 12 13 12 12 11 11 12 15 12 12 12 12 12 10 11 12
7 6 6 6 6 5 6 6 8 8 8 8 8 5 5 5 6 3 1 4 9 11 12 11 11 11 12 13 12 13 11 10 11 11 12 12 13 13 13 12 11 12 12 12
4 2 5 6 4 5 7 4 4 4 5 6 4 3 4 5 5 5 6 9 10 13 12 11 11 12 12 13 14 15 13 13 13 12 13 12 14 13 12 13 12 11 11 12
9 2 3 3 4 5 5 5 6 5 5 5 5 4 4 4 5 6 9 8 8 10 9 9 10 12 12 13 14 15 12 12 15 14 12 14 12 13 12 11 11 10 10 10
Wind_Direction
256 269 273 271 275 271 261 244 253 275 280 283 213 111 268 291 288 281 291 287 263 247 225 112 166 132 141 128 123 122 121 121 122 121 112 110 109 107 108 106 125 118 100 96
269 271 261 267 262 259 259 263 254 265 274 278 211 202 243 248 249 264 272 231 182 20 90 56 177 147 140 133 125 124 126 123 122 120 115 113 113 113 118 115 115 107 107 103
263 322 322 287 300 267 273 281 235 262 290 175 199 215 230 243 262 270 276 337 64 59 61 95 256 198 134 140 129 126 130 135 129 126 130 134 136 124 113 113 109 112 103 97
284 304 271 90 36 12 329 33 28 338 358 332 326 240 233 244 256 298 315 358 48 94 168 195 236 203 134 124 125 136 138 126 126 120 114 115 109 112 109 105 106 102 95 96
288 284 274 298 41 19 0 315 26 345 349 339 335 314 297 4 355 276 300 3 99 116 255 229 207 129 118 119 130 112 118 124 127 122 131 121 117 122 117 103 101 106 113 105
321 284 291 38 3 351 319 253 14 349 330 334 338 358 338 336 322 352 36 57 103 142 238 269 147 130 134 114 120 128 135 132 131 129 130 120 125 121 109 115 112 99 105 104
235 247 277 26 353 315 275 294 333 332 314 310 301 267 294 303 320 4 334 44 73 23 275 230 141 134 113 128 136 140 131 128 115 106 126 129 127 128 123 116 106 111 107 109
255 266 282 28 10 350 318 307 308 308 299 299 291 292 300 320 321 330 320 353 96 174 260 226 138 119 128 133 126 124 126 117 120 129 136 134 135 122 122 120 117 121 124 107
214 247 333 312 271 302 286 291 299 292 291 282 273 283 295 318 316 313 316 315 97 321 247 198 117 135 124 118 113 113 120 113 124 136 131 124 126 124 124 131 135 139 132 128
259 246 258 304 311 315 312 287 290 291 298 277 264 279 301 301 299 293 285 227 134 235 225 126 127 136 121 121 117 117 117 116 123 129 114 100 101 130 134 142 139 142 143 133
232 281 321 313 310 318 307 301 293 309 319 321 305 299 286 282 284 289 294 136 130 237 159 136 126 124 115 122 120 122 116 129 111 104 100 93 68 26 90 82 161 156 152 146
258 6 271 301 304 323 307 315 330 323 322 320 334 325 314 332 300 291 11 104 107 290 282 115 120 114 126 128 135 135 139 119 118 114 115 130 120 86 47 35 47 150 134 135
305 281 313 274 316 306 334 341 335 333 322 337 351 341 355 336 29 55 79 98 185 293 326 137 114 127 128 141 139 136 131 136 138 133 136 131 120 122 106 69 68 51 55 119
249 235 314 340 21 341 341 335 357 340 350 360 356 6 12 7 23 28 83 136 189 273 292 172 138 141 146 146 134 132 131 145 153 156 146 140 137 133 122 107 94 67 35 74
324 355 30 131 40 2 359 355 20 13 8 10 360 12 19 26 30 356 47 28 351 249 256 47 69 44 118 141 144 134 138 148 144 120 135 140 144 145 130 111 108 111 108 69
2 356 358 102 61 7 17 16 26 23 15 14 9 360 30 42 28 26 36 34 58 61 43 19 33 29 49 37 86 128 107 132 115 150 136 139 145 131 122 126 133 136 130 135
30 348 335 67 71 40 23 23 29 28 24 18 18 354 29 55 29 22 18 3 66 72 63 33 4 18 42 32 77 124 153 160 128 137 142 148 129 127 132 140 141 142 148 161
33 350 3 36 104 66 40 36 32 35 34 31 37 30 28 50 27 5 3 345 25 57 34 9 1 37 52 42 30 80 161 122 138 161 149 128 118 143 146 146 135 134 130 75
20 32 32 40 75 81 74 62 40 42 39 38 30 37 34 58 46 19 4 23 14 30 7 356 11 38 31 15 55 54 81 102 83 64 67 95 73 79 94 104 106 99 104 106
34 67 37 62 32 104 82 70 57 41 41 50 50 43 34 21 23 11 4 47 13 12 355 1 37 43 41 30 49 57 57 67 87 64 45 72 78 82 72 77 108 112 111 86
84 64 55 72 46 21 104 83 75 65 50 50 50 46 35 38 34 357 21 42 7 6 35 32 37 36 44 50 53 72 69 61 60 71 56 77 82 76 72 72 73 78 76 72
95 81 71 66 71 30 25 101 86 78 70 67 72 62 60 60 41 24 41 43 6 13 41 39 32 14 50 63 65 69 79 71 70 75 71 70 73 79 77 71 72 73 72 68
100 94 107 84 89 80 32 42 95 82 74 75 70 65 59 57 50 38 39 12 24 28 58 52 31 29 36 63 65 68 71 79 82 84 79 77 78 79 84 85 78 76 79 77
129 118 99 94 101 99 80 71 74 89 89 89 75 44 39 63 67 61 66 29 50 57 59 50 49 43 63 72 72 73 77 82 81 82 88 86 85 88 87 90 92 92 89 89
137 130 129 142 147 131 134 136 120 112 105 98 97 97 78 36 64 86 61 42 51 67 65 48 59 67 75 75 77 78 75 75 83 84 82 87 88 85 85 85 86 89 86 81
324 172 156 182 173 151 154 138 103 107 109 113 108 95 95 95 91 87 84 75 69 67 67 64 66 68 75 82 82 79 79 80 75 74 76 76 80 81 78 81 77 73 78 80
339 280 121 98 53 101 109 109 117 115 95 90 92 116 112 91 90 80 72 74 77 75 77 85 82 74 79 79 80 77 79 78 80 84 79 77 74 77 77 79 84 81 74 84